Miscellaneous Local Product
Issued by NWS Hastings, NE

Home | Current Version | Previous Version | Graphics & Text | Print | Product List | Glossary On
Versions: 1 2 3 4 5 6 7 8 9 10 11 12 13 14 15 16 17 18 19 20 21 22 23 24 25 26 27 28 29 30 31 32 33 34 35 36 37 38 39 40 41 42 43 44 45 46 47 48 49 50
853
AXUS43 KGID 250102
MISGRI

GID CWA HOURLY WEATHER ROUNDUP
NATIONAL WEATHER SERVICE HASTINGS NE
800 PM CDT SUN JUL 24 2016

NOTE: "FAIR" INDICATES FEW OR NO CLOUDS BELOW 12,000 FEET WITH NO
SIGNIFICANT WEATHER AND/OR OBSTRUCTIONS TO VISIBILITY.

...SOUTH CENTRAL NEBRASKA...

CITY           SKY/WX    TMP DP  RH WIND       PRES   REMARKS
GRAND ISLAND   CLEAR     79  64  60 NE8       30.07R
HASTINGS       CLEAR     80  63  55 NE9       30.06R
KEARNEY        CLEAR     79  64  61 E8        30.08S
ORD            CLEAR     80  62  54 E5        30.07R
YORK           CLEAR     79  68  69 N6        30.05R
AURORA         CLEAR     80  66  63 NE5       30.06R
LEXINGTON      MOSUNNY   79  63  57 NE7       30.09R
HOLDREGE       CLEAR     79  64  58 NE7       30.08R
HEBRON         CLEAR     80  63  55 E7        30.02S

...NEBRASKA PANHANDLE...

CITY           SKY/WX    TMP DP  RH WIND       PRES   REMARKS
CHADRON        SUNNY     83  49  30 S15       30.07R
ALLIANCE       SUNNY     78  52  40 SE18G25   30.12S
SCOTTSBLUFF    CLOUDY    80  53  39 E17G23    30.10S
SIDNEY         CLOUDY    71  56  58 S23G33    30.13R

...WESTERN AND NORTH CENTRAL NEBRASKA...

CITY           SKY/WX    TMP DP  RH WIND       PRES   REMARKS
VALENTINE      PTSUNNY   85  47  26 SE8       30.09R
AINSWORTH      CLOUDY    80  63  57 E6        30.10R
ONEILL         CLEAR     79  59  50 CALM      30.08R
BROKEN BOW     SUNNY     76  63  64 SE7       30.10R
IMPERIAL       CLOUDY    79  58  48 NE7       30.16R
NORTH PLATTE   SUNNY     75  65  70 E7        30.11R
MCCOOK         SUNNY     81  59  47 E16       30.07R

...EASTERN NEBRASKA...

CITY           SKY/WX    TMP DP  RH WIND       PRES   REMARKS
NORFOLK        CLEAR     79  59  50 N9        30.05R
SO SIOUX CITY  CLOUDY    80  61  52 N9        30.02S
TEKAMAH        PTCLDY    82  66  58 N6        30.02R
COLUMBUS       CLEAR     79  63  57 N6        30.05R
ALBION         CLEAR     77  65  66 CALM      30.07R
OMAHA EPPLEY   CLOUDY    83  67  58 E6        30.00F
OFFUTT AFB     CLOUDY    81  67  62 NE5       30.00S
MILLARD        CLEAR     83  65  54 CALM      30.01R
LINCOLN        CLEAR     82  66  58 NE8       30.01S
NEBRASKA CITY  CLOUDY    78  65  63 CALM      29.99R
BEATRICE       PTCLDY    80  65  60 E5        30.02R
FALLS CITY     CLOUDY    77  70  79 E7        29.98S

...NORTHERN KANSAS...

CITY           SKY/WX    TMP DP  RH WIND       PRES   REMARKS
GOODLAND       CLOUDY    84  61  45 E15G23    30.09R
HILL CITY      CLEAR     83  63  50 E15       30.03R
NORTON         CLEAR     82  45  26 E13G20    30.06
SMITH CENTER   CLEAR     79  61  53 NE12      30.03R
BELOIT         CLEAR     81  63  54 NE13      29.99R
HAYS           CLEAR     84  63  48 E22       29.98R
RUSSELL        CLEAR     83  66  56 NE21G26   29.97R
CONCORDIA      CLEAR     79  62  56 E10       30.00S
SALINA         CLEAR     88  72  58 NE13      29.95R HX  94
TOPEKA           N/A     82  69  64 NE13      29.96R



USA.gov is the U.S. government's official web portal to all federal, state and local government web resources and services.